Location: Stilson (historical)
(43.0383°N, 93.8852°W)
Time: 03:47:27
(UTC+00:00)

Daily predictions for brighter satellites

Satellite Brightness Start Highest point End
(mag) Time Altitude Azimuth Time Altitude Azimuth Time Altitude Azimuth
Aureole 3 Rocket 4.5 02:04:44 10° NNE 02:08:11 25° ENE 02:12:34 10° SE
Okean O Rocket 1.7 02:04:13 10° SSE 02:08:36 69° ENE 02:13:01 10° N
Cosmos-2242 3.1 02:05:53 10° S 02:10:05 80° W 02:14:21 10° N
USA 290 2.7 02:07:34 10° N 02:10:40 45° ENE 02:13:47 10° SE
Cosmos 2056 Rocket 4.3 02:06:48 10° N 02:11:52 39° ENE 02:16:49 10° SE
Cosmos 1072 Rocket 4.5 02:07:42 10° N 02:13:53 81° E 02:19:59 10° S
DELTA 2 DEB (DPAF) 4.1 02:16:23 10° NNE 02:20:38 87° WNW 02:24:51 10° SSW
Cosmos 1943 Rocket 2.9 02:18:32 10° NNW 02:24:01 53° WSW 02:29:27 10° S
Cosmos 2084 4.0 02:21:19 10° NNW 02:24:52 38° NE 02:28:22 10° ESE
Cosmos 44 3.5 02:20:37 10° NNW 02:25:23 56° NE 02:29:44 11° SE
Cosmos 972 4.5 02:20:57 10° SSW 02:25:50 82° WNW 02:30:49 10° NNE
SL-8 R/B 3.8 02:23:42 10° SW 02:28:17 52° SE 02:32:55 10° ENE
Cosmos 1766 Rocket 4.4 02:28:23 10° N 02:32:27 34° ENE 02:36:11 12° SE
FALCON 9 R/B 3.2 02:33:58 10° WSW 02:38:14 43° SSE 02:50:30 10° ESE
ERS-1 Rocket 3.9 02:35:26 12° SE 02:39:35 34° ENE 02:44:05 10° N
Cosmos 494 Rocket 4.5 02:36:37 10° S 02:41:18 38° ESE 02:46:00 10° NE
ATLAS 3B R/B 3.1 02:33:45 10° NW 02:41:39 84° WSW 02:48:59 12° SSE
Cosmos 2221 2.6 02:38:16 10° S 02:42:30 60° E 02:46:46 10° NNE
Cosmos 2278 Rocket 4.4 02:39:41 10° NW 02:43:51 21° W 02:47:59 10° SSW
CZ-4B R/B 4.5 02:39:23 10° SSW 02:44:22 38° W 02:49:19 10° NNW
Cosmos 1464 Rocket 4.4 02:38:16 10° NNW 02:44:30 65° W 02:50:37 10° S
USA 245 4.1 02:44:24 13° E 02:45:02 14° ENE 02:46:23 10° NNE
Lacrosse 5 rocket 3.7 02:42:01 10° W 02:45:45 28° NNW 02:49:26 10° NNE
CZ-4C R/B 3.2 02:43:12 10° NNE 02:47:00 76° ESE 02:50:57 10° S
IRS-1C Rocket 4.3 02:42:58 12° SSE 02:47:45 57° ENE 02:52:54 10° N
Okean-O 2.6 02:44:07 10° SSE 02:48:31 86° WSW 02:52:57 10° NNW
Centaur D AC-29 3.9 02:45:14 10° S 02:49:28 20° SE 02:59:31 10° E
USA 281 4.3 02:49:24 11° ESE 02:54:46 31° NE 03:00:25 10° N
Cosmos 2297 3.7 02:49:36 10° NNW 02:55:23 77° ENE 03:00:02 16° SSE
Cosmos 1371 Rocket 4.1 02:52:39 10° NNW 02:58:02 85° WSW 03:02:42 14° SSE
MetOp-B 4.1 02:54:08 12° SSE 02:59:04 79° ENE 03:04:27 10° NNW
Cosmos 921 Rocket 3.0 02:56:33 10° SSW 03:01:00 84° ESE 03:05:31 10° NNE
Lacrosse 5 2.6 02:56:56 10° WNW 03:01:48 45° SW 03:05:39 15° SSE
Cosmos 1420 Rocket 4.5 03:01:11 10° NNW 03:06:25 60° WSW 03:11:13 12° S
Meteor 1-14 Rocket 4.5 03:00:51 10° N 03:06:41 62° ENE 03:11:08 18° SSE
MOS 1 4.5 03:01:47 10° S 03:07:26 72° WSW 03:13:07 10° NNW
Cosmos 1536 4.1 03:06:34 10° NNE 03:09:47 24° ENE 03:11:11 20° ESE
Cosmos 2279 Rocket 4.3 03:06:49 10° N 03:12:48 50° ENE 03:16:51 21° SE
Terra 2.0 03:11:34 21° SE 03:14:35 58° ENE 03:19:13 10° N
SPOT 3 Rocket 4.0 03:12:33 21° SE 03:15:42 48° ENE 03:20:38 10° N
Cosmos 1743 2.5 03:13:18 10° N 03:16:55 82° W 03:19:07 22° S
Cosmos 1634 Rocket 4.0 03:12:12 10° N 03:18:31 82° E 03:23:26 17° S
GEOS 3 Rocket 3.8 03:13:42 10° NE 03:18:40 46° ESE 03:23:32 10° SSW
SL-16 R/B 3.4 03:13:31 10° SW 03:18:54 44° WNW 03:24:20 10° NNE
IRS-1A Rocket 4.3 03:16:27 16° SSE 03:21:03 82° WSW 03:26:38 10° NNW
Cosmos 1603 4.1 03:17:41 17° SSE 03:21:34 41° ESE 03:26:52 10° NE
Spot 2 Rocket 3.6 03:20:07 23° SSE 03:23:10 64° ENE 03:28:10 10° N
Meteor 2-6 Rocket 4.2 03:17:35 10° S 03:23:13 90° ESE 03:28:44 10° N
SPOT 5 3.2 03:21:11 15° S 03:24:57 57° W 03:29:21 10° NNW
Cosmos 2263 4.2 03:20:11 10° NNW 03:25:54 76° ENE 03:29:20 25° SSE
Resurs 01 Rocket 4.3 03:27:21 10° SW 03:29:47 14° W 03:32:13 10° WNW
Cosmos 2369 Rocket 2.3 03:25:26 10° NNW 03:31:02 75° WSW 03:34:30 24° SSE
ISS -2.8 03:31:05 10° NW 03:34:17 41° NNE 03:35:42 26° E
Cosmos 1500 Rocket 4.3 03:31:03 10° N 03:35:02 35° ENE 03:36:17 29° ESE
Cosmos 1726 1.6 03:33:05 10° N 03:36:12 65° E 03:36:42 53° SE
Okean 3 Rocket 3.5 03:33:17 10° N 03:37:42 87° W 03:39:52 29° S
USA 276 2.4 03:37:50 10° WNW 03:39:27 40° W 03:39:27 40° W
Cosmos 1842 Rocket 3.8 03:40:11 17° SSW 03:43:31 71° W 03:47:56 10° N
USA 229 DEB 4.0 03:36:00 10° NW 03:43:33 80° WSW 03:48:32 26° SSE
USA 229 4.0 03:36:06 10° NW 03:43:40 81° WSW 03:48:38 26° SSE
Cosmos 1805 Rocket 4.3 03:40:45 10° N 03:44:51 38° ENE 03:45:58 32° ESE
Okean O Rocket 4.4 03:43:46 10° WSW 03:45:19 12° W 03:46:53 10° WNW
Ariane Rocket 3.0 03:43:07 28° S 03:45:52 83° WSW 03:50:58 10° NNW
BREEZE-M DEB (TANK) 3.8 03:31:31 10° SW 03:47:32 59° SE 03:51:31 10° ENE
USA 306 4.0 03:45:21 10° NW 03:48:54 34° NNE 03:50:49 21° ENE
ARGOS Delta rocket 4.4 03:46:26 21° S 03:49:45 56° W 03:54:32 10° NNW
Meteor 1-27 Rocket 3.7 03:51:15 32° SSE 03:53:41 59° E 03:59:06 10° NNE
Cosmos 2180 Rocket 4.4 03:49:51 10° N 03:56:04 78° E 03:59:06 32° SSE
Cosmos 1452 Rocket 3.4 03:52:43 10° NNW 03:57:59 87° WSW 04:00:07 37° SSE
Cosmos 468 4.5 03:54:01 16° SSW 03:58:14 83° WNW 04:03:29 10° NNE
Cosmos 1943 3.6 03:52:59 10° SW 03:58:38 66° WNW 04:04:18 10° NNE
Spot 1 3.8 03:55:02 10° NNE 03:59:07 85° ESE 04:00:37 39° S
Cosmos 1340 Rocket 3.0 04:01:12 49° ESE 04:01:30 51° E 04:05:23 10° NNE
SL-8 R/B 4.3 04:06:04 10° W 04:10:44 55° NNW 04:15:27 10° ENE
Sich 1 2.9 04:10:26 10° N 04:14:49 82° E 04:15:38 58° SSE
ARIANE 5 R/B 3.7 04:14:14 29° E 04:14:53 31° ENE 04:18:41 10° N
Meteor 2-4 Rocket 4.4 04:14:07 36° ESE 04:15:28 41° E 04:20:59 10° NNE
Cosmos 1733 2.9 04:14:09 10° N 04:17:33 77° NE 04:17:33 77° NE
Meteor 2-9 Rocket 4.3 04:11:51 10° N 04:17:43 88° W 04:20:00 40° S
ERS-1 Rocket 4.4 04:15:21 17° SW 04:18:19 30° W 04:22:43 10° NW
Cosmos 1626 4.0 04:26:23 17° NE 04:26:23 17° NE 04:27:31 10° NE
H-2A R/B 3.9 04:26:26 25° ENE 04:26:48 25° ENE 04:30:16 10° NNE
Cosmos 1743 Rocket 3.5 04:22:33 10° N 04:26:58 81° W 04:27:41 61° S
Landsat 5 4.1 04:24:49 10° N 04:28:26 45° WNW 04:29:35 34° WSW
Lacrosse 4 Rocket 3.2 04:25:52 10° N 04:28:59 21° NE 04:30:02 19° ENE
USA 59 Rocket 1.1 04:25:39 10° NNW 04:29:25 38° NE 04:30:54 31° E
Cosmos 1428 Rocket 4.4 04:32:48 44° S 04:34:51 76° E 04:40:58 10° N
Cosmos 614 Rocket 3.9 04:36:01 57° SSE 04:36:53 68° ESE 04:42:04 10° NNE
USA 281 3.5 04:36:16 36° S 04:38:54 57° WSW 04:45:24 10° NNW
Cosmos 1092 Rocket 4.0 04:38:02 46° SSE 04:39:47 64° E 04:46:02 10° NNE
Cosmos 1975 3.1 04:37:17 10° N 04:40:53 55° ENE 04:40:53 55° ENE
NOSS 2-1 (D) 4.1 04:39:13 10° NNW 04:43:07 52° NE 04:44:04 45° E
Cosmos 1302 Rocket 3.9 04:39:25 10° NNW 04:44:38 82° WSW 04:45:34 61° S
Cosmos 1992 Rocket 4.3 04:43:40 10° NNW 04:48:48 54° ENE 04:49:43 48° ESE
IRIDIUM 104 4.2 04:44:33 10° N 04:49:48 85° E 04:50:41 63° SSE
Terra 4.1 04:50:17 11° WSW 04:52:32 15° W 04:55:17 10° NW
Cosmos 1340 3.7 04:50:00 10° NNW 04:52:37 36° WNW 04:52:37 36° WNW
Cosmos 2195 Rocket 4.4 04:51:31 46° SSW 04:53:29 85° W 04:59:38 10° N
CZ-2C R/B 3.5 04:53:15 10° N 04:57:46 81° WNW 04:58:05 75° SW
IRIDIUM 114 4.3 04:53:42 10° N 04:58:57 80° W 04:59:49 62° SSW
Cosmos 1818 3.5 05:00:04 60° SE 05:00:11 61° ESE 05:05:36 10° NE
Cosmos 1328 Rocket 3.5 05:07:06 80° NNE 05:07:06 80° NNE 05:11:13 10° N
IRIDIUM 103 4.5 05:02:53 10° N 05:08:04 65° W 05:08:57 55° SW
Cosmos 1151 Rocket 4.2 05:08:17 31° WSW 05:09:12 35° WNW 05:13:11 10° N
Cosmos 1515 Rocket 4.4 05:09:54 38° ENE 05:09:54 38° ENE 05:13:16 10° NNE
ISS -1.1 05:07:54 10° WNW 05:08:29 14° W 05:08:29 14° W
Cosmos 2082 Rocket 4.5 05:12:28 11° E 05:12:28 11° E 05:13:10 10° E
Spot 4 4.0 05:12:22 59° E 05:12:35 60° ENE 05:17:17 10° N
Cosmos 1833 Rocket 3.2 05:13:06 41° E 05:13:06 41° E 05:18:04 10° NE
CZ-3 Stage 3 4.3 04:54:04 10° WSW 05:16:07 36° S 05:16:07 36° S
NOSS 2-1 (C) 3.7 05:14:57 10° NW 05:18:57 79° WSW 05:18:57 79° WSW
Cosmos 1470 Rocket 3.7 05:17:06 10° N 05:21:14 68° NE 05:21:14 68° NE
Cosmos 1140 Rocket 4.4 05:22:15 35° E 05:22:15 35° E 05:26:28 10° NE
Cosmos 1766 4.0 05:18:03 10° N 05:20:51 47° NNE 05:20:51 47° NNE
USA 306 4.4 05:18:58 10° WNW 05:20:55 26° WNW 05:20:55 26° WNW
Celestis-02/Orion 38 4.5 05:26:04 68° ESE 05:26:40 78° ENE 05:31:56 10° NNW
Cosmos 1470 4.1 05:25:41 10° N 05:28:10 31° NE 05:28:10 31° NE
H-2A R/B 3.7 05:26:33 10° NE 05:29:24 25° ENE 05:29:24 25° ENE
ALOS 2 2.9 05:30:51 61° NE 05:30:51 61° NE 05:34:55 10° N
Cosmos 1666 Rocket 4.3 05:26:55 10° NNW 05:30:43 43° W 05:30:43 43° W
Cosmos 1633 Rocket 3.5 05:27:15 10° NNW 05:31:16 53° WNW 05:31:16 53° WNW
Cosmos 1269 Rocket 4.2 05:41:11 55° WSW 05:41:59 63° WNW 05:47:14 10° NNE
Cosmos 407 Rocket 4.3 05:44:50 38° E 05:44:50 38° E 05:49:16 10° NE
Cosmos 1656 3.6 05:39:07 10° NNW 05:44:32 67° WSW 05:44:44 66° SW
Cosmos 2251 Rocket 4.4 05:45:41 35° E 05:45:41 35° E 05:49:57 10° NE
NOSS 3-3 (A) 3.9 05:43:44 46° WSW 05:45:20 69° NW 05:51:38 10° NNE
Cosmos 1933 Rocket 3.9 05:42:28 10° N 05:46:17 60° NE 05:46:17 60° NE
USA 267 3.1 05:44:17 10° NE 05:50:50 73° SE 05:52:17 55° SSW
ARIANE 5 R/B 4.2 05:51:42 24° W 05:51:42 24° W 05:54:50 10° NW
S3M 4.1 05:51:11 10° N 05:57:35 70° E 05:58:48 57° SE
Cosmos 1626 4.5 05:59:12 15° NW 05:59:12 15° NW 06:00:33 10° NNW
H-2A R/B 4.0 06:02:25 26° WNW 06:02:25 26° WNW 06:05:18 10° NW
Cosmos 2315 Rocket 4.4 05:57:21 10° N 06:03:31 53° ENE 06:04:55 45° ESE
NOSS 3-4 (A) 4.5 05:57:11 10° NNW 06:03:52 52° NE 06:09:12 20° ESE
NOSS 3-4 (C) 4.5 05:57:17 10° NNW 06:03:58 51° NE 06:09:22 20° ESE
Lacrosse 5 rocket 4.4 06:02:52 10° NNW 06:05:12 14° NNE 06:07:29 10° NE
Cosmos 2285 Rocket 3.8 06:06:17 66° SSE 06:07:10 77° ESE 06:13:30 10° NNE
Cosmos 1553 Rocket 4.2 06:01:32 10° NNW 06:07:25 53° W 06:08:18 49° WSW
Lacrosse 4 Rocket 2.8 06:03:34 10° NW 06:05:57 29° WNW 06:05:57 29° WNW
Cosmos 1697 Rocket 2.6 06:04:36 10° NNW 06:10:16 81° ENE 06:10:50 72° SE
Meteor 1-13 Rocket 4.2 06:12:56 71° S 06:13:38 87° E 06:19:35 10° N
Cosmos 1980 Rocket 3.0 06:11:52 10° NNW 06:17:21 46° ENE 06:19:10 35° ESE
Cosmos 44 Rocket 3.4 06:14:08 10° NNW 06:19:03 70° NE 06:19:06 69° ENE
USA 59 Rocket 2.0 06:15:15 10° WNW 06:17:27 23° W 06:17:27 23° W
USA 234 3.8 06:19:15 10° ESE 06:25:39 57° NNE 06:32:02 10° NW
COSMOS 2406 3.9 06:25:37 39° ESE 06:25:44 39° ESE 06:31:03 10° NE
In-Cosmos 22 4.1 06:25:09 73° SSW 06:25:45 86° W 06:31:32 10° N
Cosmos 1607 4.0 06:26:53 52° SW 06:28:32 76° NW 06:35:04 10° NNE
Meteor 2-10 Rocket 3.9 06:27:10 10° N 06:32:59 65° ENE 06:33:58 55° SE
Cosmos 2228 Rocket 3.5 06:35:01 58° ENE 06:35:01 58° ENE 06:38:58 10° NNE
Cosmos 1655 Rocket 3.9 06:33:57 63° SSW 06:35:04 85° W 06:41:30 10° N
Meteor 1-15 Rocket 4.1 06:38:16 10° NNW 06:43:54 75° W 06:44:20 71° SW
Cosmos 2266 Rocket 4.4 06:44:22 43° WSW 06:45:36 49° WNW 06:51:38 10° N
Meteor 1-22 Rocket 4.0 06:42:10 10° NNW 06:47:28 70° W 06:47:41 69° WSW
SL-16 R/B 4.4 06:43:20 10° N 06:47:41 22° NE 06:52:00 10° E
Cosmos 1400 Rocket 3.4 06:52:53 55° N 06:52:53 55° N 06:56:05 10° N
Meteor 1-21 4.2 06:53:57 63° SSE 06:54:42 72° E 07:00:25 10° NNE
Meteor 2-20 4.4 06:48:43 10° N 06:54:55 84° E 06:56:12 59° SSE
Cosmos 2082 Rocket 2.1 06:54:16 70° S 06:54:55 81° ESE 07:00:40 10° NNE
Cosmos 1833 Rocket 4.0 06:54:45 24° W 06:56:50 31° NW 07:01:48 10° N
Cosmos 1733 Rocket 3.1 06:55:59 10° N 06:59:54 72° N 06:59:54 72° N
Meteor 1-12 Rocket 4.3 06:56:26 10° NNW 07:02:18 69° W 07:03:06 61° SW
CZ-2D R/B 4.2 07:00:58 10° NE 07:04:32 17° E 07:06:34 15° ESE
GP-B 4.0 07:00:33 10° NNW 07:04:17 38° WNW 07:04:17 38° WNW
Cosmos 1346 Rocket 3.4 07:01:56 10° N 07:05:14 53° NE 07:05:14 53° NE
H-2A R/B 3.4 07:02:10 10° N 07:06:00 29° WNW 07:06:13 29° WNW
DELTA 2 R/B (1) 3.9 07:09:07 49° SE 07:09:07 49° SE 07:13:29 10° E
Okean 2 4.1 07:12:29 44° ENE 07:12:29 44° ENE 07:15:57 10° NNE
Cosmos 1300 4.0 07:13:22 10° NNW 07:15:31 31° NW 07:15:31 31° NW
Resurs 1-4 Rocket 3.7 07:14:18 10° NE 07:18:28 23° E 07:20:15 20° ESE
SL-14 R/B 4.4 07:22:25 35° NW 07:22:25 35° NW 07:25:22 10° N
Cosmos 676 Rocket 3.9 07:23:42 67° SSW 07:24:26 85° WNW 07:29:48 10° NNE
Cosmos 1953 2.8 07:21:57 10° N 07:25:46 50° ENE 07:25:47 50° E
Cosmos 1703 Rocket 4.0 07:27:15 50° ESE 07:27:37 52° E 07:31:56 10° NNE
Cosmos 468 Rocket 3.9 07:24:04 10° NNW 07:29:21 75° WSW 07:30:00 65° SSW
Cosmos 2278 4.3 07:24:39 10° NNW 07:30:16 55° ENE 07:34:03 21° SE
Cosmos 1954 Rocket 4.2 07:29:24 54° WSW 07:30:18 62° WNW 07:35:35 10° NNE
Cosmos 1862 Rocket 4.2 07:32:30 42° WNW 07:32:30 42° WNW 07:36:29 10° N
USA 267 4.2 07:27:31 10° NE 07:33:36 43° NNW 07:39:36 10° W
SL-8 R/B 3.6 07:31:45 10° WNW 07:36:33 82° NNE 07:41:20 10° ESE
CZ-2C R/B 4.0 07:33:41 14° SE 07:37:31 34° ENE 07:42:09 10° N
Cosmos 1763 Rocket 4.0 07:33:12 10° NW 07:38:04 41° W 07:38:04 41° W
Cosmos 2333 Rocket 4.3 07:38:33 10° N 07:43:18 26° NE 07:48:03 10° ESE
SL-08 R/B 4.5 07:42:12 47° SW 07:43:58 68° W 07:50:07 10° N
Lacrosse 5 rocket 2.5 07:40:38 10° NW 07:44:32 40° NE 07:48:15 10° ESE
Cosmos 1356 Rocket 4.4 07:45:34 34° WNW 07:45:34 34° WNW 07:49:11 10° N
Cosmos 2322 Rocket 3.6 07:42:17 10° N 07:47:32 37° ENE 07:52:45 10° SE
Cosmos 1745 Rocket 3.9 07:47:13 42° S 07:49:28 83° E 07:55:46 10° N
MOZ.5/SAFIR/RUBIN 5/SL-8 3.7 07:52:29 57° S 07:53:28 83° WSW 07:58:12 10° NNW
NPP 3.9 07:49:19 10° NNE 07:54:40 63° ESE 07:56:33 39° SSE
NOSS 3-4 (A) 4.3 07:48:09 10° NW 07:54:48 41° WSW 07:56:33 37° SW
NOSS 3-4 (C) 4.3 07:48:15 10° NW 07:54:54 42° WSW 07:56:43 37° SSW
Cosmos 540 Rocket 4.0 07:50:57 10° NW 07:55:44 39° WSW 07:55:46 39° WSW
Okean 1-7 3.4 07:56:25 47° W 07:56:37 48° WNW 08:00:48 10° N
ATLAS CENTAUR R/B 4.4 07:45:10 10° NW 07:56:37 40° WSW 07:59:39 33° SSW
Cosmos 1315 Rocket 2.7 08:00:47 68° W 08:00:50 68° WNW 08:04:44 10° N
Cosmos 1980 Rocket 3.3 07:56:20 10° NW 08:00:53 27° W 08:00:53 27° W
ALOS 4.5 07:59:11 10° NE 08:02:23 18° E 08:05:29 10° SE
Helios 1A Rocket 4.2 08:04:36 26° WNW 08:04:36 26° WNW 08:07:07 10° NW
ADEOS II 3.1 08:00:06 10° NNE 08:04:58 38° E 08:07:43 22° SSE
SJ 16-02 2.3 08:06:53 30° SE 08:08:10 38° ESE 08:12:10 10° NE
USA 234 3.4 08:05:25 27° S 08:08:42 48° SW 08:15:01 10° WNW
IDEFIX/ARIANE 42P 2.5 08:04:17 10° NNE 08:09:35 86° ESE 08:11:29 41° S
COSMOS 2406 4.3 08:07:38 24° W 08:10:03 34° NW 08:15:17 10° N
BREEZE-M DEB (TANK) 4.0 08:07:47 10° WNW 08:13:37 33° N 08:16:08 10° ENE
Nadezhda 1 Rocket 4.1 08:07:35 10° NNW 08:13:54 63° W 08:16:37 35° SSW
Cosmos 1703 4.3 08:18:18 28° SE 08:19:37 38° E 08:23:06 10° NNE
Genesis I 3.0 08:20:19 59° SE 08:20:33 61° ESE 08:24:04 10° NE
Cosmos 1455 3.0 08:17:32 10° NNW 08:20:06 32° WNW 08:20:06 32° WNW
Cosmos 1782 Rocket 3.5 08:22:23 10° NNW 08:26:44 65° W 08:27:54 44° SSW
Cosmos 1908 Rocket 4.4 08:23:22 10° NNW 08:27:19 32° W 08:27:39 32° W
BREEZE-M DEB (TANK) 4.0 08:25:57 33° W 08:27:27 69° NNW 08:35:58 10° ENE
CZ-2C R/B 3.4 08:23:21 10° NNE 08:29:11 73° ESE 08:32:29 26° S
Cosmos 1850 Rocket 4.2 08:27:14 36° SW 08:29:16 60° WNW 08:34:30 10° NNE
SL-16 R/B 2.1 08:26:38 10° NNW 08:32:16 66° WSW 08:36:03 21° S
RESURS DK-1 4.0 08:29:02 10° N 08:32:47 35° ENE 08:36:31 10° SE
Meteor 1-4 Rocket 4.3 08:33:53 16° WNW 08:33:53 16° WNW 08:35:22 10° NNW
Cosmos 1741 Rocket 4.2 08:32:29 34° SW 08:34:34 57° WNW 08:39:46 10° NNE
Cosmos 2082 Rocket 4.2 08:36:05 11° W 08:39:42 19° NW 08:43:39 10° N
AQUA 4.0 08:36:24 10° NNE 08:41:07 65° ESE 08:43:54 24° S
H-2A R/B 4.2 08:39:01 10° N 08:42:43 37° WNW 08:43:45 31° WSW
Cosmos 968 Rocket 3.5 08:41:58 32° SW 08:44:17 65° WNW 08:49:24 10° NNE
Cosmos 2219 Rocket 3.5 08:39:28 10° NNW 08:44:50 42° ENE 08:50:10 10° SE
CZ-2D R/B 2.3 08:39:34 10° N 08:44:59 65° WNW 08:47:51 28° SW
CRYOSAT 2 4.3 08:40:15 10° N 08:45:08 76° W 08:47:46 28° SSW
SL-27 R/B 1.6 08:46:45 71° SW 08:46:59 81° WNW 08:49:48 10° NNE
Cosmos 1825 4.1 08:47:38 10° SE 08:50:19 22° E 08:53:01 10° NE
BREEZE-M R/B 4.2 08:47:03 24° WSW 08:50:23 86° SSE 09:08:43 10° ENE
Cosmos 1242 Rocket 3.2 08:50:48 27° WNW 08:50:48 27° WNW 08:53:14 10° NNW
Cosmos 1709 Rocket 4.4 08:48:17 26° SW 08:51:38 49° WNW 08:57:48 10° N
ATLAS 2AS CENTAUR R/B 3.7 08:45:35 10° NNW 08:52:12 48° NE 08:58:34 10° ESE
Cosmos 2360 Rocket 2.2 08:48:17 10° NNW 08:53:59 89° WSW 08:59:40 10° SSE
DELTA 2 R/B (1) 3.7 08:49:50 16° W 08:54:09 54° SSW 08:59:33 10° ESE
SL-16 R/B 2.6 08:48:41 10° SSE 08:54:56 85° ENE 09:01:15 10° NNW
Cosmos 841 Rocket 4.5 08:50:40 10° NW 08:55:01 27° W 08:56:15 24° WSW
OAO 3 Rocket 4.0 08:54:37 28° SSW 08:55:26 29° S 08:59:39 10° SE
Meteor 1-24 Rocket 3.9 08:51:31 20° S 08:55:50 89° E 09:01:53 10° N
Cosmos 1892 4.0 08:55:11 12° SSE 08:58:02 33° E 09:01:13 10° NNE
Resurs 1-4 Rocket 2.6 08:53:27 10° N 08:58:27 46° WNW 09:01:18 23° SW
Cosmos 2181 Rocket 4.0 08:52:08 10° N 08:58:32 85° W 09:04:47 10° S
Cosmos 1953 4.5 08:59:50 10° WNW 09:00:54 11° W 09:00:54 11° W
Cosmos 2221 Rocket 4.3 08:58:04 13° SSE 09:02:00 53° E 09:06:26 10° NNE
Cosmos 2242 Rocket 4.2 09:00:35 26° SW 09:02:27 39° WNW 09:06:41 10° N
Cosmos 1408 3.2 09:02:22 27° W 09:02:40 27° WNW 09:05:18 10° NNW
MSX 4.5 08:59:27 10° N 09:04:45 40° WNW 09:08:11 20° SW
Tiangong -0.4 09:08:06 18° SSE 09:08:33 18° SSE 09:10:47 10° ESE
SL-4 R/B 2.5 09:06:32 25° SSW 09:08:47 51° SE 09:13:07 10° ENE
Sich 1 Rocket 4.0 09:04:52 10° N 09:09:22 66° E 09:13:46 10° SSE
FENGYUN 3A 3.8 09:04:32 10° N 09:09:50 62° WNW 09:13:34 20° SSW
Cosmos 2151 Rocket 3.7 09:07:01 10° N 09:11:30 76° E 09:15:55 10° SSE
IRAS Rocket 4.2 09:07:41 10° NNE 09:13:14 90° ESE 09:17:50 15° SSW
Cosmos 2098 Rocket 3.8 09:09:52 10° NNW 09:15:06 60° W 09:21:11 10° S
Cosmos 839 Rocket 4.1 09:09:03 10° NNW 09:16:10 83° WSW 09:22:19 10° SSE
CZ-2C R/B 3.4 09:15:09 20° SW 09:17:46 31° W 09:22:20 10° NNW
Lacrosse 5 rocket 2.1 09:19:17 10° WNW 09:22:43 28° SW 09:26:01 10° S
BREEZE-M DEB (TANK) 4.1 09:21:45 10° NNW 09:23:32 23° NNE 09:26:13 10° E
Cosmos 1814 Rocket 4.4 09:19:13 10° NNW 09:24:09 43° WSW 09:29:05 10° S
Okean 2 Rocket 3.0 09:19:53 10° N 09:24:18 86° W 09:28:42 10° S
Cosmos 1674 Rocket 3.5 09:20:37 14° S 09:24:21 81° W 09:28:49 10° N
Cosmos 2333 Rocket 2.4 09:22:20 10° NNW 09:27:53 54° WSW 09:33:26 10° S
Cosmos 405 Rocket 2.5 09:27:51 10° N 09:31:28 86° W 09:35:07 10° S
Cosmos 2322 Rocket 2.8 09:26:26 10° NW 09:31:29 34° WSW 09:36:31 10° SSW
Cosmos 1295 Rocket 4.5 09:30:52 10° SSW 09:36:58 72° W 09:43:04 10° N
Meteor 2-5 Rocket 4.4 09:32:53 15° SW 09:37:32 43° WNW 09:43:12 10° N
Cosmos 2297 Rocket 4.2 09:34:07 10° SSE 09:38:37 25° ESE 09:43:07 10° NE
ATLAS CENTAUR R/B 2.3 09:36:17 10° S 09:39:27 34° ESE 09:42:40 10° NE
ALOS 2.7 09:35:23 10° N 09:39:49 47° WNW 09:43:48 12° SW
Cosmos 1378 Rocket 4.0 09:38:01 14° SSW 09:41:26 43° WNW 09:45:33 10° N
Cosmos 1486 Rocket 4.3 09:36:51 10° S 09:42:00 69° ESE 09:47:11 10° NNE
Cosmos 1570 Rocket 4.0 09:37:37 10° NNW 09:42:55 72° WSW 09:48:12 10° S
ADEOS II 3.2 09:39:59 10° N 09:44:26 29° WNW 09:48:35 11° WSW
Cosmos 2208 Rocket 4.0 09:41:09 10° NNW 09:46:28 88° WSW 09:51:40 10° SSE
SJ 16-02 3.0 09:43:39 11° WSW 09:46:39 20° WNW 09:49:55 10° N
Okean 1 Rocket 3.0 09:45:47 10° NNW 09:50:06 72° W 09:54:24 10° S
Cosmos 2074 Rocket 4.4 09:47:42 10° SSW 09:53:39 47° WNW 09:59:37 10° N
METEOR-M 4.2 09:50:03 10° N 09:55:24 77° WNW 10:00:44 10° SSW
CZ-2C R/B 2.4 09:51:32 10° NNE 09:56:19 79° ESE 10:00:55 10° S
Cosmos 1241 Rocket 4.5 09:51:08 10° SW 09:57:20 81° NW 10:03:35 10° NNE
UNK 4.4 09:53:23 10° SSW 09:57:39 36° W 10:01:57 10° NNW
IRS-1D 3.9 09:54:02 10° NNE 09:59:23 70° ESE 10:04:38 10° S
COSMOS 2455 4.2 09:54:09 10° S 09:59:32 36° ESE 10:04:58 10° NE
Envisat 3.1 09:55:07 10° N 10:00:10 68° WNW 10:05:11 10° SSW
Cosmos 158 Rocket 4.0 09:59:49 10° NNW 10:05:11 70° WSW 10:10:28 10° S
RESURS DK-1 3.6 10:07:15 10° WNW 10:10:17 20° WSW 10:13:18 10° SSW
CZ-4C R/B 4.0 10:08:27 10° SSE 10:11:33 19° ESE 10:15:05 10° ENE
Cosmos 773 Rocket 4.2 10:08:47 10° NNW 10:13:56 78° ENE 10:19:03 10° SSE
DMSP B5D2-2 4.1 10:11:16 10° S 10:16:29 80° WSW 10:21:47 10° NNW
